SCP
0 0 0 0 0 0 0 0 0 0 0 0 0 0 0 0 0 0 0 0 0 0 0 0 0 0 0 0 0 0 0 0 0 0 0 0 0 0 0 0 0 0 0 0
0 0 0 0 0 0 0 0 0 0 0 0 0 0 0 0 0 0 0 0 0 0 0 0 0 0 0 0 0 0 0 0 0 0 0 0 0 0 0 0 0 0 0 0
0 0 0 0 0 0 0 0 0 0 0 0 0 0 0 0 0 0 0 0 0 0 0 0 0 0 0 0 0 0 0 0 0 0 0 0 0 0 0 0 0 0 0 0
0 0 0 0 0 0 0 0 0 0 0 0 0 0 0 0 0 0 0 0 0 0 0 0 0 0 0 0 0 0 0 0 0 0 0 0 0 0 0 0 0 0 0 0
0 0 0 0 0 0 0 0 0 0 0 0 0 0 0 0 0 0 0 0 0 0 0 0 0 0 0 0 0 0 0 0 0 0 0 0 0 0 0 0 0 0 0 0
0 0 0 0 0 0 0 0 0 0 0 0 0 0 0 0 0 0 0 0 0 0 0 0 0 0 0 0 0 0 0 0 0 0 0 0 0 0 0 0 0 0 0 0
0 0 0 0 0 0 0 0 0 0 0 0 0 0 0 0 0 0 0 0 0 0 0 0 0 0 0 0 0 0 0 0 0 0 0 0 0 0 0 0 0 0 0 0
0 0 0 0 0 0 0 0 0 0 0 0 0 0 0 0 0 0 0 0 0 0 0 0 0 0 0 0 0 0 0 0 0 0 0 0 0 0 0 0 0 0 0 0
0 0 0 0 0 0 0 0 0 0 0 0 0 0 0 0 0 0 0 0 0 0 0 0 0 0 0 0 0 0 0 0 0 0 0 0 0 0 0 0 0 0 0 0
0 0 0 0 0 0 0 0 0 0 0 0 0 0 0 0 0 0 0 0 0 0 0 0 0 0 0 0 0 0 0 0 0 0 0 0 0 0 0 0 0 0 0 0
-0 -0 -0 0 -0 -0 0 0 0 0 0 0 0 0 0 0 0 0 0 0 0 0 0 0 0 0 0 0 0 0 0 0 0 0 0 0 0 0 0 0 0 0 0 0
0 -0 -0 -0 -0 -0 0 0 0 0 -0 -0 0 0 0 0 0 0 0 0 0 0 0 0 0 0 0 0 0 0 0 0 0 0 0 0 0 0 0 0 0 0 0 0
-0 -0 -0 -0 -0 0 0 0 0 0 0 0 0 0 0 0 0 0 0 0 0 0 0 0 0 0 0 0 0 0 0 0 0 0 0 0 0 0 0 0 0 0 0 0
-0 -0 -0 -0 -0 0 0 0 0 0 0 0 0 0 0 0 0 0 0 0 0 0 0 0 0 0 0 0 0 0 0 0 0 0 0 0 0 0 0 0 0 0 0 0
0 -0 0 -0 -0 0 0 0 0 0 0 0 0 0 0 0 0 0 0 0 0 0 0 0 0 0 0 0 0 0 0 0 0 0 0 0 0 0 0 0 0 0 0 0
-0 -0 -0 -0 -0 0 0 0 0 0 0 0 0 0 0 0 0 0 0 0 0 0 0 0 0 0 0 0 0 0 0 0 0 0 0 0 0 0 0 0 0 0 0 0
0 0 0 0 0 0 0 0 0 0 0 0 0 0 0 0 0 0 0 0 0 0 0 0 0 0 0 0 0 0 0 0 0 0 0 0 0 0 0 0 0 0 0 0
0 0 0 0 0 0 0 0 0 0 0 0 0 0 0 0 0 0 0 0 0 0 0 0 0 0 0 0 0 0 0 0 0 0 0 0 0 0 0 0 0 0 0 0
0 0 0 0 0 0 0 0 0 0 0 0 0 0 0 0 0 0 0 0 0 0 0 0 0 0 0 0 0 0 0 0 0 0 0 0 0 0 0 0 0 0 0 0
0 0 0 0 0 0 0 0 0 0 0 0 0 0 0 0 0 0 0 0 0 0 0 0 0 0 0 0 0 0 0 0 0 0 0 0 0 0 0 0 0 0 0 0
0 0 0 0 0 0 0 0 0 0 0 0 0 0 0 0 0 0 0 0 0 0 0 0 0 0 0 0 0 0 0 0 0 0 0 0 0 0 0 0 0 0 0 0
0 0 0 0 0 0 0 0 0 0 0 0 0 0 0 0 0 0 0 0 0 0 0 0 0 0 0 0 0 0 0 0 0 0 0 0 0 0 0 0 0 0 0 0
0 0 0 0 0 0 0 0 0 0 0 0 0 0 0 0 0 0 0 0 0 0 0 0 0 0 0 0 0 0 0 0 0 0 0 0 0 0 0 0 0 0 0 0
0 0 0 0 0 0 0 0 0 0 0 0 0 0 0 0 0 0 0 0 0 0 0 0 0 0 0 0 0 0 0 0 0 0 0 0 0 0 0 0 0 0 0 0
0 0 0 0 0 0 0 0 0 0 0 0 0 0 0 0 0 0 0 0 0 0 0 0 0 0 0 0 0 0 0 0 0 0 0 0 0 0 0 0 0 0 0 0
0 0 0 0 0 0 0 0 0 0 0 0 0 0 0 0 0 0 0 0 0 0 0 0 0 0 0 0 0 0 0 0 0 0 0 0 0 0 0 0 0 0 0 0
0 0 0 0 0 0 0 0 0 0 0 0 0 0 0 0 0 0 0 0 0 0 0 0 0 0 0 0 0 0 0 0 0 0 0 0 0 0 0 0 0 0 0 0
Wind_Speed_500mb
8 7 6 6 13 27 36 31 24 18 23 23 22 22 36 42 45 40 35 34 30 25 26 28 33 30 25 22 25 28 30 32 35 36 38 39 42 45 48 51 53 56 59 64
4 5 5 8 20 24 25 25 40 40 53 34 47 46 44 49 37 34 34 23 16 18 25 29 26 22 23 29 34 39 43 47 49 53 55 54 55 56 58 60 62 64 65 67
4 2 5 11 23 29 27 29 33 36 39 33 29 35 37 35 30 27 22 14 17 17 16 18 21 26 33 39 44 49 53 57 61 64 67 68 69 70 71 70 70 71 72 73
4 2 9 5 13 21 32 38 37 39 37 37 40 35 23 13 14 19 10 5 7 11 16 24 32 38 42 47 52 56 60 65 67 69 71 73 73 73 73 74 75 74 74 74
5 11 18 19 12 13 16 27 34 38 35 51 41 4 7 7 10 12 8 7 14 22 29 37 44 47 51 53 58 61 63 65 69 72 76 78 80 81 81 82 82 81 80 80
4 7 12 2 10 7 6 23 32 38 38 36 7 12 6 13 11 3 7 15 23 29 37 43 49 53 55 56 59 62 65 70 74 77 79 82 83 83 83 84 86 86 86 83
13 10 15 14 17 1 18 4 22 23 16 10 2 12 16 6 5 14 22 28 33 36 39 43 49 54 57 60 63 64 65 64 62 62 64 66 69 71 74 77 79 81 84 84
12 12 20 21 5 12 3 9 10 14 15 15 13 4 2 14 20 27 32 35 37 38 41 47 53 55 51 48 47 48 50 52 54 54 56 60 63 65 67 70 75 78 79 81
20 15 5 14 6 15 19 11 5 4 4 1 6 10 18 22 30 34 35 35 38 42 44 42 41 42 44 46 48 47 47 49 51 52 53 53 58 60 61 62 65 69 72 76
7 16 36 35 32 35 29 21 19 17 15 17 20 24 25 29 32 35 41 41 42 38 36 39 41 42 42 42 44 46 47 49 51 54 56 56 57 56 54 55 57 60 62 65
20 30 35 46 40 35 32 35 25 21 21 24 28 31 34 35 37 39 41 41 37 42 42 39 37 37 39 41 44 46 48 51 53 55 57 58 56 56 56 52 48 52 56 59
13 15 23 21 23 23 33 34 26 26 30 30 30 31 35 38 38 39 34 39 43 39 37 37 36 37 39 41 44 47 49 51 53 56 59 60 62 66 57 53 49 47 47 48
55 42 38 36 30 21 25 26 32 32 29 31 34 35 36 38 37 37 41 39 36 37 38 40 39 40 42 43 45 47 49 50 52 53 55 58 60 63 71 66 59 50 45 42
54 48 40 49 31 26 39 39 32 32 34 32 34 36 37 37 38 38 36 38 39 39 39 42 43 43 44 44 44 44 47 50 53 53 54 55 57 59 60 63 69 66 48 37
33 35 45 33 23 31 32 30 33 33 34 38 37 38 38 38 38 37 38 40 41 40 40 43 43 43 44 44 45 46 48 49 52 53 53 54 55 54 53 53 53 55 50 35
18 35 43 44 37 35 35 38 39 40 38 39 39 39 40 41 40 39 39 42 41 40 39 42 41 42 44 44 47 48 49 50 51 52 52 52 51 50 49 48 48 46 42 37
35 31 28 38 40 41 41 38 43 39 38 40 38 41 41 41 42 40 39 42 41 40 40 42 41 41 42 46 48 49 50 50 50 50 49 49 48 48 47 45 44 42 38 30
54 47 39 35 34 37 43 41 39 39 40 38 41 41 40 41 41 40 40 38 37 38 36 36 37 38 42 44 46 47 49 50 50 50 50 48 48 47 46 44 43 41 38 33
33 45 51 53 50 48 46 46 44 43 43 43 42 39 40 40 41 41 39 35 31 34 31 31 35 39 40 42 44 45 47 48 48 48 48 49 48 47 45 43 42 41 40 36
23 27 31 35 38 41 41 42 45 46 44 43 41 41 40 38 40 38 35 33 28 30 31 33 36 38 40 41 44 45 46 47 48 48 48 48 47 47 47 45 43 41 40 38
34 34 35 36 38 41 44 47 50 49 45 45 43 41 42 39 35 36 32 32 27 29 29 35 38 39 39 41 44 45 45 47 48 49 50 50 50 49 48 47 45 44 42 39
38 40 40 43 45 46 49 51 53 51 48 44 44 43 40 35 33 33 29 30 30 29 32 36 36 37 40 42 43 44 45 47 49 51 51 51 50 51 51 49 48 45 43 41
42 41 42 44 47 50 53 55 52 47 45 43 42 40 37 33 31 31 29 29 29 31 34 35 36 37 39 42 43 45 47 50 52 53 54 54 53 52 52 51 50 49 47 44
45 44 46 49 53 54 54 45 41 42 44 43 40 36 34 32 29 29 29 29 31 33 35 36 36 38 39 40 43 47 50 52 55 56 57 57 56 55 54 52 51 49 47 45
51 52 54 56 53 48 42 42 43 44 42 38 34 33 31 28 27 27 28 29 32 34 31 32 34 36 39 41 45 49 52 53 54 55 56 56 56 55 53 51 50 48 47 45
56 56 56 52 47 44 44 44 42 38 34 30 29 27 25 24 25 26 27 28 26 26 27 29 32 35 39 43 45 48 51 53 54 54 55 56 55 54 52 50 48 47 46 45
62 62 57 50 46 45 43 38 34 31 27 25 24 22 22 23 23 23 22 21 20 21 24 28 32 36 39 42 44 45 47 49 50 52 53 53 52 51 50 50 49 47 45 43
Wind_Direction_500mb
55 39 30 336 257 225 228 237 239 259 259 265 281 291 290 295 294 298 292 292 292 289 293 295 304 305 310 317 322 325 323 321 318 313 310 309 307 304 304 303 302 301 301 299
353 178 172 271 256 245 253 267 263 272 269 272 270 267 269 271 273 275 283 284 285 282 286 289 288 292 302 312 317 319 319 318 316 314 314 314 312 311 309 306 304 302 301 299
126 16 302 275 240 238 245 240 240 255 264 263 258 257 263 264 261 273 282 274 271 276 281 288 293 300 306 308 311 311 311 312 312 311 310 311 311 311 311 310 308 305 304 302
98 147 234 6 326 248 242 246 247 250 260 266 270 285 291 284 251 264 239 186 248 277 287 293 298 301 301 302 304 305 306 307 306 305 306 307 308 309 309 308 307 306 304 302
186 226 310 301 236 207 198 253 250 257 259 261 273 262 230 101 135 152 177 249 285 293 296 299 299 299 300 301 302 303 303 303 305 307 308 309 309 310 310 308 307 306 304 302
158 228 238 36 37 249 240 268 267 266 265 271 174 243 113 129 136 161 275 287 290 291 294 294 295 297 299 301 302 303 304 305 307 307 306 306 307 307 307 306 305 305 304 303
214 255 275 271 262 231 192 273 353 23 29 52 127 56 133 135 289 299 299 295 294 296 299 300 300 301 302 302 301 302 303 304 305 307 307 307 308 308 308 307 306 305 304 304
205 233 263 200 101 220 303 41 57 62 68 84 107 99 259 289 291 298 299 300 301 300 302 302 300 300 302 304 306 307 307 308 309 309 311 311 310 311 312 312 311 310 309 308
199 211 225 183 258 235 289 284 238 178 181 287 311 293 305 301 298 298 298 297 300 304 306 303 303 304 305 304 304 306 308 310 312 313 313 314 314 314 315 314 313 313 312 312
200 233 252 255 262 259 264 245 249 241 261 290 297 296 297 297 297 296 297 299 303 304 303 302 299 299 301 304 307 311 315 318 320 321 321 320 319 318 317 317 317 314 312 309
250 265 281 275 264 256 259 244 242 256 270 281 290 294 297 291 290 293 295 299 300 301 299 297 298 302 306 311 316 320 324 326 326 325 324 322 322 322 322 320 317 312 307 304
247 244 243 272 279 280 242 238 245 271 279 282 284 286 287 289 293 294 293 295 296 295 297 303 307 310 314 318 321 323 325 325 325 326 326 325 324 322 322 321 320 311 303 300
252 263 270 273 270 263 235 237 273 276 278 286 287 287 289 294 292 288 291 295 300 303 304 306 310 314 318 320 322 323 324 325 325 325 324 323 324 322 323 324 324 323 315 311
248 258 265 259 258 258 253 263 265 269 276 277 285 287 285 284 288 294 298 300 302 304 307 310 314 316 315 316 318 320 321 322 323 323 322 322 322 321 323 324 323 325 327 319
259 249 243 252 258 252 251 256 272 275 277 279 279 281 284 287 289 289 291 295 300 304 307 307 310 311 314 316 318 319 320 321 320 320 321 322 322 322 321 322 320 319 321 321
256 247 246 254 257 249 257 266 265 270 269 273 278 284 284 285 286 291 294 296 298 300 303 304 310 312 315 316 317 320 321 321 320 320 321 322 321 320 320 321 319 319 320 322
245 245 244 246 246 247 254 265 267 266 267 272 280 279 284 285 286 289 293 293 298 303 306 311 314 314 315 318 319 319 319 320 320 320 320 320 319 319 321 320 318 317 318 318
247 251 251 252 252 255 259 258 262 265 272 278 277 280 280 282 286 287 287 292 296 298 305 307 309 313 313 314 315 318 319 320 320 319 320 320 318 318 320 319 317 315 313 308
240 245 247 250 254 261 262 263 265 267 269 273 275 278 279 282 284 287 290 295 298 300 304 306 310 311 313 315 317 319 319 318 317 318 318 317 317 317 317 317 316 314 310 306
242 248 248 252 251 254 261 264 264 266 270 271 273 277 281 282 285 288 292 295 296 295 303 307 310 312 315 317 319 319 319 319 318 318 317 317 316 316 315 314 314 313 310 306
254 254 254 255 259 262 264 266 267 269 269 267 271 276 277 280 282 283 288 289 291 296 302 305 309 313 316 318 319 318 318 317 316 316 315 314 313 313 312 311 311 310 307 304
256 254 257 260 264 268 270 271 271 268 264 266 271 273 275 277 275 278 280 282 289 292 300 305 309 312 315 316 316 316 316 315 314 313 312 311 311 310 310 310 307 304 303 303
253 252 256 263 271 275 275 275 273 266 266 270 271 270 271 271 271 273 274 277 282 289 299 303 307 309 311 313 314 314 314 313 312 311 310 310 309 309 308 308 307 303 300 298
252 257 266 272 275 277 279 278 270 269 270 269 267 262 262 263 265 268 274 278 283 292 300 303 307 309 313 315 316 316 315 314 313 312 311 311 310 310 309 308 306 305 303 302
255 263 269 272 273 275 274 272 273 274 271 264 257 254 257 261 264 272 275 283 293 301 306 309 314 317 319 319 320 318 316 315 315 314 313 312 311 310 309 308 307 306 304 302
261 269 268 267 268 270 273 275 273 266 259 252 250 252 256 259 264 275 286 295 300 306 313 317 318 320 322 322 322 321 319 319 318 317 317 315 314 313 312 311 308 306 303 302
262 263 261 262 268 273 273 268 261 254 247 243 247 248 251 261 273 283 288 294 303 311 315 317 320 323 324 324 323 322 321 321 321 321 319 317 316 315 313 311 310 308 307 304
Wind_Speed_850mb
8 7 6 6 13 27 36 31 24 18 23 23 22 22 36 42 45 40 35 34 30 25 26 28 33 30 25 22 25 28 30 32 35 36 38 39 42 45 48 51 53 56 59 64
4 5 5 8 20 24 25 25 40 40 53 34 47 46 44 49 37 34 34 23 16 18 25 29 26 22 23 29 34 39 43 47 49 53 55 54 55 56 58 60 62 64 65 67
4 2 5 11 23 29 27 29 33 36 39 33 29 35 37 35 30 27 22 14 17 17 16 18 21 26 33 39 44 49 53 57 61 64 67 68 69 70 71 70 70 71 72 73
4 2 9 5 13 21 32 38 37 39 37 37 40 35 23 13 14 19 10 5 7 11 16 24 32 38 42 47 52 56 60 65 67 69 71 73 73 73 73 74 75 74 74 74
5 11 18 19 12 13 16 27 34 38 35 51 41 4 7 7 10 12 8 7 14 22 29 37 44 47 51 53 58 61 63 65 69 72 76 78 80 81 81 82 82 81 80 80
4 7 12 2 10 7 6 23 32 38 38 36 7 12 6 13 11 3 7 15 23 29 37 43 49 53 55 56 59 62 65 70 74 77 79 82 83 83 83 84 86 86 86 83
13 10 15 14 17 1 18 4 22 23 16 10 2 12 16 6 5 14 22 28 33 36 39 43 49 54 57 60 63 64 65 64 62 62 64 66 69 71 74 77 79 81 84 84
12 12 20 21 5 12 3 9 10 14 15 15 13 4 2 14 20 27 32 35 37 38 41 47 53 55 51 48 47 48 50 52 54 54 56 60 63 65 67 70 75 78 79 81
20 15 5 14 6 15 19 11 5 4 4 1 6 10 18 22 30 34 35 35 38 42 44 42 41 42 44 46 48 47 47 49 51 52 53 53 58 60 61 62 65 69 72 76
7 16 36 35 32 35 29 21 19 17 15 17 20 24 25 29 32 35 41 41 42 38 36 39 41 42 42 42 44 46 47 49 51 54 56 56 57 56 54 55 57 60 62 65
20 30 35 46 40 35 32 35 25 21 21 24 28 31 34 35 37 39 41 41 37 42 42 39 37 37 39 41 44 46 48 51 53 55 57 58 56 56 56 52 48 52 56 59
13 15 23 21 23 23 33 34 26 26 30 30 30 31 35 38 38 39 34 39 43 39 37 37 36 37 39 41 44 47 49 51 53 56 59 60 62 66 57 53 49 47 47 48
55 42 38 36 30 21 25 26 32 32 29 31 34 35 36 38 37 37 41 39 36 37 38 40 39 40 42 43 45 47 49 50 52 53 55 58 60 63 71 66 59 50 45 42
54 48 40 49 31 26 39 39 32 32 34 32 34 36 37 37 38 38 36 38 39 39 39 42 43 43 44 44 44 44 47 50 53 53 54 55 57 59 60 63 69 66 48 37
33 35 45 33 23 31 32 30 33 33 34 38 37 38 38 38 38 37 38 40 41 40 40 43 43 43 44 44 45 46 48 49 52 53 53 54 55 54 53 53 53 55 50 35
18 35 43 44 37 35 35 38 39 40 38 39 39 39 40 41 40 39 39 42 41 40 39 42 41 42 44 44 47 48 49 50 51 52 52 52 51 50 49 48 48 46 42 37
35 31 28 38 40 41 41 38 43 39 38 40 38 41 41 41 42 40 39 42 41 40 40 42 41 41 42 46 48 49 50 50 50 50 49 49 48 48 47 45 44 42 38 30
54 47 39 35 34 37 43 41 39 39 40 38 41 41 40 41 41 40 40 38 37 38 36 36 37 38 42 44 46 47 49 50 50 50 50 48 48 47 46 44 43 41 38 33
33 45 51 53 50 48 46 46 44 43 43 43 42 39 40 40 41 41 39 35 31 34 31 31 35 39 40 42 44 45 47 48 48 48 48 49 48 47 45 43 42 41 40 36
23 27 31 35 38 41 41 42 45 46 44 43 41 41 40 38 40 38 35 33 28 30 31 33 36 38 40 41 44 45 46 47 48 48 48 48 47 47 47 45 43 41 40 38
34 34 35 36 38 41 44 47 50 49 45 45 43 41 42 39 35 36 32 32 27 29 29 35 38 39 39 41 44 45 45 47 48 49 50 50 50 49 48 47 45 44 42 39
38 40 40 43 45 46 49 51 53 51 48 44 44 43 40 35 33 33 29 30 30 29 32 36 36 37 40 42 43 44 45 47 49 51 51 51 50 51 51 49 48 45 43 41
42 41 42 44 47 50 53 55 52 47 45 43 42 40 37 33 31 31 29 29 29 31 34 35 36 37 39 42 43 45 47 50 52 53 54 54 53 52 52 51 50 49 47 44
45 44 46 49 53 54 54 45 41 42 44 43 40 36 34 32 29 29 29 29 31 33 35 36 36 38 39 40 43 47 50 52 55 56 57 57 56 55 54 52 51 49 47 45
51 52 54 56 53 48 42 42 43 44 42 38 34 33 31 28 27 27 28 29 32 34 31 32 34 36 39 41 45 49 52 53 54 55 56 56 56 55 53 51 50 48 47 45
56 56 56 52 47 44 44 44 42 38 34 30 29 27 25 24 25 26 27 28 26 26 27 29 32 35 39 43 45 48 51 53 54 54 55 56 55 54 52 50 48 47 46 45
62 62 57 50 46 45 43 38 34 31 27 25 24 22 22 23 23 23 22 21 20 21 24 28 32 36 39 42 44 45 47 49 50 52 53 53 52 51 50 50 49 47 45 43
Wind_Direction_850mb
55 39 30 336 257 225 228 237 239 259 259 265 281 291 290 295 294 298 292 292 292 289 293 295 304 305 310 317 322 325 323 321 318 313 310 309 307 304 304 303 302 301 301 299
353 178 172 271 256 245 253 267 263 272 269 272 270 267 269 271 273 275 283 284 285 282 286 289 288 292 302 312 317 319 319 318 316 314 314 314 312 311 309 306 304 302 301 299
126 16 302 275 240 238 245 240 240 255 264 263 258 257 263 264 261 273 282 274 271 276 281 288 293 300 306 308 311 311 311 312 312 311 310 311 311 311 311 310 308 305 304 302
98 147 234 6 326 248 242 246 247 250 260 266 270 285 291 284 251 264 239 186 248 277 287 293 298 301 301 302 304 305 306 307 306 305 306 307 308 309 309 308 307 306 304 302
186 226 310 301 236 207 198 253 250 257 259 261 273 262 230 101 135 152 177 249 285 293 296 299 299 299 300 301 302 303 303 303 305 307 308 309 309 310 310 308 307 306 304 302
158 228 238 36 37 249 240 268 267 266 265 271 174 243 113 129 136 161 275 287 290 291 294 294 295 297 299 301 302 303 304 305 307 307 306 306 307 307 307 306 305 305 304 303
214 255 275 271 262 231 192 273 353 23 29 52 127 56 133 135 289 299 299 295 294 296 299 300 300 301 302 302 301 302 303 304 305 307 307 307 308 308 308 307 306 305 304 304
205 233 263 200 101 220 303 41 57 62 68 84 107 99 259 289 291 298 299 300 301 300 302 302 300 300 302 304 306 307 307 308 309 309 311 311 310 311 312 312 311 310 309 308
199 211 225 183 258 235 289 284 238 178 181 287 311 293 305 301 298 298 298 297 300 304 306 303 303 304 305 304 304 306 308 310 312 313 313 314 314 314 315 314 313 313 312 312
200 233 252 255 262 259 264 245 249 241 261 290 297 296 297 297 297 296 297 299 303 304 303 302 299 299 301 304 307 311 315 318 320 321 321 320 319 318 317 317 317 314 312 309
250 265 281 275 264 256 259 244 242 256 270 281 290 294 297 291 290 293 295 299 300 301 299 297 298 302 306 311 316 320 324 326 326 325 324 322 322 322 322 320 317 312 307 304
247 244 243 272 279 280 242 238 245 271 279 282 284 286 287 289 293 294 293 295 296 295 297 303 307 310 314 318 321 323 325 325 325 326 326 325 324 322 322 321 320 311 303 300
252 263 270 273 270 263 235 237 273 276 278 286 287 287 289 294 292 288 291 295 300 303 304 306 310 314 318 320 322 323 324 325 325 325 324 323 324 322 323 324 324 323 315 311
248 258 265 259 258 258 253 263 265 269 276 277 285 287 285 284 288 294 298 300 302 304 307 310 314 316 315 316 318 320 321 322 323 323 322 322 322 321 323 324 323 325 327 319
259 249 243 252 258 252 251 256 272 275 277 279 279 281 284 287 289 289 291 295 300 304 307 307 310 311 314 316 318 319 320 321 320 320 321 322 322 322 321 322 320 319 321 321
256 247 246 254 257 249 257 266 265 270 269 273 278 284 284 285 286 291 294 296 298 300 303 304 310 312 315 316 317 320 321 321 320 320 321 322 321 320 320 321 319 319 320 322
245 245 244 246 246 247 254 265 267 266 267 272 280 279 284 285 286 289 293 293 298 303 306 311 314 314 315 318 319 319 319 320 320 320 320 320 319 319 321 320 318 317 318 318
247 251 251 252 252 255 259 258 262 265 272 278 277 280 280 282 286 287 287 292 296 298 305 307 309 313 313 314 315 318 319 320 320 319 320 320 318 318 320 319 317 315 313 308
240 245 247 250 254 261 262 263 265 267 269 273 275 278 279 282 284 287 290 295 298 300 304 306 310 311 313 315 317 319 319 318 317 318 318 317 317 317 317 317 316 314 310 306
242 248 248 252 251 254 261 264 264 266 270 271 273 277 281 282 285 288 292 295 296 295 303 307 310 312 315 317 319 319 319 319 318 318 317 317 316 316 315 314 314 313 310 306
254 254 254 255 259 262 264 266 267 269 269 267 271 276 277 280 282 283 288 289 291 296 302 305 309 313 316 318 319 318 318 317 316 316 315 314 313 313 312 311 311 310 307 304
256 254 257 260 264 268 270 271 271 268 264 266 271 273 275 277 275 278 280 282 289 292 300 305 309 312 315 316 316 316 316 315 314 313 312 311 311 310 310 310 307 304 303 303
253 252 256 263 271 275 275 275 273 266 266 270 271 270 271 271 271 273 274 277 282 289 299 303 307 309 311 313 314 314 314 313 312 311 310 310 309 309 308 308 307 303 300 298
252 257 266 272 275 277 279 278 270 269 270 269 267 262 262 263 265 268 274 278 283 292 300 303 307 309 313 315 316 316 315 314 313 312 311 311 310 310 309 308 306 305 303 302
255 263 269 272 273 275 274 272 273 274 271 264 257 254 257 261 264 272 275 283 293 301 306 309 314 317 319 319 320 318 316 315 315 314 313 312 311 310 309 308 307 306 304 302
261 269 268 267 268 270 273 275 273 266 259 252 250 252 256 259 264 275 286 295 300 306 313 317 318 320 322 322 322 321 319 319 318 317 317 315 314 313 312 311 308 306 303 302
262 263 261 262 268 273 273 268 261 254 247 243 247 248 251 261 273 283 288 294 303 311 315 317 320 323 324 324 323 322 321 321 321 321 319 317 316 315 313 311 310 308 307 304